www.pogodaiklimat.ru

Погода и климат >> Архив погоды >> Мали >> Bamako


ПОГОДА в Bamako

  • Прогноз погоды в Bamako
  • Монитор погоды в Bamako
  • Климат города

АРХИВ ПОГОДЫ в Bamako

Время (UTC), дата Ветер
(напр.,м/с)
 
Видим.   Явления Облачность Т
(С)
Тd
(С)
f
(%)
Тe
(С)
Тes
(С)
Комфортность P
(гПа)
Po
(гПа)
Тmin
(С)
Tmax
(С)
R
(мм)
R24
(мм)
S
(см)
12 12.11 СВ 5 2000 м пыль 3/0
[Ci sp]
+31.6 +4.1 18 +29 +37 жарко 1010.8 970.4
15 12.11 В 4 4000 м пыль 3/0
[Ci sp]
+34.5 -0.3 11 +31 +37 жарко 1008.1 967.9
18 12.11 СВ 3 4000 м пыль 3/0
[Ci sp]
+30.9 +5.7 20 +29 +29 жарко 1008.7 968.2 +34.8
21 12.11 СВ 3 4000 м пыль 3/0
[Ci sp]
+25.5 +5.5 28 +25 +25 комфорт 1010.2 969.3
00 13.11 СВ 3 4000 м пыль 3/0
[Ci sp]
+24.5 +6.6 32 +25 +25 комфорт 1010.1 969.6
03 13.11 СВ 5 8000 м пыль 3/0
[Ci sp]
+24.1 +0.8 22 +23 +23 комфорт 1009.6 969.3
06 13.11 СВ 3 8000 м пыль 3/0
[Ci sp]
+20.6 -1.6 22 +21 +21 комфорт 1010.2 969.4 +19.0
09 13.11 СВ 8 6000 м пыль 3/0
[Ci sp]
+24.4 -4.1 15 +22 +23 комфорт 1012.5 971.4
12 13.11 СВ 5 6000 м пыль 3/0
[Ci sp]
+30.0 -1.4 13 +27 +34 жарко 1011.4 970.7
15 13.11 СВ 8 6000 м пыль 3/0
[Ci sp]
+24.4 -4.1 15 +22 +24 комфорт 1012.5 971.4
18 13.11 В 2 8000 м пыль 8/0
[Ci sp]
+26.9 +1.1 19 +29 +29 жарко 1008.8 967.9 +33.7
21 13.11 В 4 8000 м пыль 8/0
[Ci sp]
+24.7 +8.0 34 +25 +25 комфорт 1010.0 969.0
00 14.11 штиль 0 8000 м пыль 8/0
[Ci sp]
+17.8 +10.1 61 +18 +18 1010.2 969.2
03 14.11 С 2 8000 м пыль 5/0
[Ci sp]
+17.0 +9.5 61 +17 +17 1009.1 968.3
06 14.11 С 3 8000 м пыль 3/0
[Ci sp]
+19.5 +4.8 38 +20 +20 1010.1 968.9 +16.2
09 14.11 0 8000 м пыль ясно +24.5 +0.1 20 1011.2 970.1
12 14.11 СВ 4 10 км 3/0
[Ci sp]
+30.3 +2.3 17 +28 +38 жарко 1010.7 969.6
15 14.11 С 3 10 км 3/0
[Ci sp]
+33.2 +1.8 14 +30 +38 жарко 1008.5 967.6
18 14.11 СВ 2 10 км 3/0
[Ci sp]
+29.5 +6.7 24 +28 +28 жарко 1008.7 967.8 +33.5
21 14.11 СВ 5 10 км 3/0
[Ci sp]
+25.0 +7.4 32 +25 +25 комфорт 1010.6 969.6
00 15.11 СВ 4 10 км 3/0
[Ci sp]
+24.3 +5.4 30 +24 +24 комфорт 1010.3 969.7
03 15.11 С 2 8000 м пыль 1/0
[Ci sp]
+16.3 +9.1 62 +16 +16 1009.4 968.5
06 15.11 С 1 8000 м пыль 1/0
[Ci sp]
+13.7 +7.8 68 +14 +14 1010.1 968.8 +13.7
09 15.11 СВ 6 8000 м пыль ясно +25.5 +5.4 27 +25 +27 комфорт 1011.5 970.6
12 15.11 В 5 10 км ясно +30.9 +3.3 17 +28 +36 жарко 1010.5 969.8
15 15.11 СВ 4 10 км ясно +34.0 +5.5 17 +32 +38 жарко 1008.0 967.2
18 15.11 штиль 0 10 км ясно +28.0 +14.0 42 +30 +30 жарко 1008.4 967.1 +35.2
21 15.11 штиль 0 10 км ясно +20.5 +11.7 57 +22 +22 комфорт 1010.7 969.6
00 16.11 штиль 0 10 км ясно +18.0 +10.8 63 +18 +18 1011.4 970.4
03 16.11 штиль 0 10 км ясно +21.0 +16.0 73 +24 +24 комфорт 1010.2 969.7
06 16.11 штиль 0 10 км ясно +15.0 +11.4 79 +15 +15 1011.2 969.8 +15.0
09 16.11 СВ 3 10 км пыль ясно +25.7 +5.2 27 +25 +29 комфорт 1012.3 971.0
12 16.11 СВ 4 10 км ясно +32.2 +4.7 18 +30 +40 жарко 1011.0 970.0
15 16.11 Ю 2 10 км ясно +35.0 +6.6 17 +33 +42 жарко 1007.8 967.4
18 16.11 СВ 3 10 км ясно +31.5 +9.6 26 +31 +31 жарко 1008.4 967.3 +35.1
21 16.11 СВ 1 10 км 3/0
[Ci sp]
+23.7 +13.3 52 +26 +26 жарко 1009.9 969.0
00 17.11 С 2 10 км 3/0
[Ci sp]
+18.6 +10.9 61 +20 +20 1010.6 969.8
03 17.11 штиль 0 10 км 3/0
[Ci sp]
+18.5 +9.9 57 +19 +32 опасность
простуды
1009.7 969.1
06 17.11 СВ 2 10 км 3/0
[Ci sp]
+20.0 +4.7 37 +21 +21 комфорт 1010.0 969.2 +18.0
09 17.11 С 4 10 км 8/0
[Ac lent Ci sp]
+25.0 +1.2 21 +24 +26 комфорт 1011.4 970.3
12 17.11 В 3 10 км 9/0
[Ac lent Ci sp]
+29.4 +2.1 17 +27 +35 жарко 1011.3 970.1
15 17.11 СВ 2 10 км 8/0
[Ac lent Ci sp]
+31.1 +7.8 23 +30 +33 жарко 1008.6 967.7
18 17.11 С 2 10 км 8/0
[Ac lent Ci sp]
+29.0 +3.1 19 +27 +27 жарко 1009.0 968.0 +31.6
21 17.11 С 2 10 км 3/0
[Ci sp]
+20.0 +10.2 53 +22 +22 комфорт 1011.1 969.9
00 18.11 штиль 0 8000 м пыль 3/0
[Ci sp]
+16.3 +10.2 67 +16 +16 1011.1 969.9
03 18.11 штиль 0 8000 м пыль 3/0
[Ci sp]
+16.4 +12.1 76 +16 +16 1009.6 968.6
06 18.11 С 2 6000 м пыль 5/0
[Ac lent Ci sp]
+19.0 +12.0 64 +20 +20 1009.8 968.8 +16.0
09 18.11 СВ 3 8000 м пыль 6/0
[Ac lent Ci sp]
+26.6 +2.7 21 +25 +29 комфорт 1011.5 970.3
12 18.11 СВ 3 10 км 6/0
[Ci sp]
+30.9 +4.7 19 +29 +40 жарко 1010.9 969.8
15 18.11 С 4 10 км 8/0
[Ac lent Ci sp]
+32.3 +3.2 16 +30 +34 жарко 1009.2 968.3
18 18.11 штиль 0 10 км 6/0
[Ac lent Ci sp]
+27.2 +6.0 26 +29 +29 жарко 1009.2 968.1 +32.9
21 18.11 СВ 2 10 км 3/0
[Ci sp]
+19.3 +9.1 52 +21 +21 комфорт 1010.1 968.9
00 19.11 С 2 10 км ясно +17.0 +8.4 57 +17 +17 1009.9 968.9
03 19.11 С 3 8000 м пыль ясно +17.8 +7.6 51 +18 +18 1008.6 967.8
06 19.11 С 4 8000 м пыль 6/0
[Ac lent Ci sp]
+15.6 +8.3 62 +15 +15 1009.3 967.9 +15.6
09 19.11 С 2 8000 м пыль 6/0
[Ac lent Ci sp]
+23.2 +5.3 31 +23 +27 комфорт 1011.6 970.1

 

Местоположение метеостанции Bamako (Мали): широта 12.53 долгота -7.95 высота над уровнем моря 381 м.

В архиве по умолчанию представлена погода в Bamako за последнюю неделю. Архивные данные за месяц целиком и за предыдущие месяцы, начиная с января 2011 года, Вы можете получить, выбрав интересующий диапазон дат из раскрывающегося списка и нажав кнопку "Ввод!".

Внимание! Время в таблицах - всемирное. Для получения местного времени необходимо прибавить поправку, которая в Bamako равна 0 ч.

Смотрите также архив погоды в соседних городах и на ближайших метеорологических станциях:

Погода в Bougouni (Мали) (133 км)
Погода в Kita (Мали) (175 км)
Погода в Segou (Мали) (218 км)
Погода в Koutiala (Мали) (270 км)
Погода в Sikasso (Мали) (280 км)
Погода в Nara (Мали) (302 км)
Погода в Odienne (Кот-д'Ивуар) (335 км)
Погода в Nioro Du Sahel (Мали) (336 км)
Погода в San (Мали) (350 км)
Погода в Kenieba (Мали) (358 км)

Пояснения к столбцам:

Ветер - указаны скорость ветра в м/с - средняя за 10 мин, порывы в срок и между сроками (в фигурных скобках) и направление, откуда дует ветер: С - северный, СВ - северо-восточный, В - восточный, ЮВ - юго-восточный, Ю - южный, ЮЗ - юго-западный, З - западный, СЗ - северо-западный.
Видимость - горизонтальная дальность видимости в метрах или километрах. При видимости от 1 до 10 км при отсутствии осадков обычно наблюдается дымка, при ухудшении видимости до 1 км и менее - туман. В сухую погоду видимость может ухудшаться дымом, пылью или мглою.
Явления - указаны атмосферные явления, наблюдавшиеся в срок или в последний час перед сроком; фигурными скобками обозначены явления, наблюдавшиеся между сроками (за 1-3 часа до срока); квадратными скобками обозначены град или гололедные отложения с указанием их диаметра в мм.
Облачность - указаны через наклонную черту общая и нижняя облачность в баллах и высота нижней границы облаков в метрах; квадратными скобками обозначены формы облаков: Ci - перистые, Cs - перисто-слоистые, Cc - перисто-кучевые, Ac - высококучевые, As - высокослоистые, Sc - слоисто-кучевые, Ns - слоисто-дождевые, Cu - кучевые, Cb - кучево-дождевые. Подробнее классификацию облаков см. в Атласе облаков (PDF).
T - Температура воздуха - температура, измеренная на высоте 2 м над землей.
Td - Температура точки росы - температура, при понижении до которой содержащийся в воздухе водяной пар достигнет насыщения.
f - Относительная влажность воздуха - влажноcть воздуха, измеренная на высоте 2 м над землей.
Te - Эффективная температура - температура, которую ощущает одетый по сезону человек в тени. Характеристика душности погоды. При расчете учитывается влияние влажности воздуха и скорости ветра на теплоощущения человека.
Tes - Эффективная температура на солнце - температура, которую ощущает человек, с поправкой на солнечный нагрев. Характеристика знойности погоды. Зависит от высоты солнца над горизонтом, облачности и скорости ветра. Ночью, в пасмурную погоду, а также при ветре 12 м/с и более поправка равна нулю.
P - Атмосферное давление - приведенное к уровню моря атмосферное давление.
Po - Атмосферное давление - измеренное на уровне метеостанции атмосферное давление.
Tmin - Минимальная температура - минимум температуры воздуха на высоте 2 м над землей.
Tmax - Максимальная температура - максимум температуры воздуха на высоте 2 м над землей.
R - Количество осадков - Количество выпавших осадков за период времени, мм. При наведении курсора мыши на число - период времени, за который выпало указанное количество осадков.
R24 - Количество осадков - Количество выпавших осадков за 24 часа, мм.
S - Снежный покров - Высота снежного покрова, см. При наведении курсора мыши на число - состояние снежного покрова и степень покрытия местности в баллах.